Portada
METAR-TAF:

METAR-TAF

Aeroports :

Lawrence J. Timmerman Airport

Milwaukee, Wisconsin, Estats Units d'Amèrica

latitud: 43-07N, longitud: 088-02W, altitud: 227 m

Observació

L'informe es va fer fa 47 minuts, a les 16:45 UTC
Vent 8 kt del Est
Temperatura 16°C
Humitat 51%
Pressió 1027 hPa
Visibilitat: 16.1 km
Cel cobert a una alçada de 3700 ft

METAR: KMWC 221645Z 08008KT 10SM OVC037 16/06 A3034

Hora: 12:32 (17:32 UTC)


TAF: manca

Observacions i pronòstics meteorològics de més de 4000 aeroports (METAR i TAF).

Les estacions disponibles són els punts grocs i vermells al mapa.

Posi el ratolí al punt desitjat per veure el nom de l'estació.

Feu clic per veure les observacions i els pronòstics meteorològics.

Per canviar el mapa: feu clic els botons verds amb una creu de color negre per apropar; al botó verd amb un guió per allunyar la imatge; o en les fletxes verdes per a mapes adjacents.


METAR-TAF: